sat.trackr.live / text

‹ back to catalog

KOMPSAT-7

NORAD 66820 · 2025-279A

PAYLOAD ACTIVE UNKNOWN

§ Identity

Operator
Country
SKOR
Launch date
2025-12-01
Launch site
FRGUI
Launch vehicle
Mass (kg)
RCS (m²)

External: N2YO · Heavens-Above · Gunter

§ Orbital elements

Epoch: 2026-05-25T03:17:46.188096Z

Period
95.99 min
Inclination
97.6996°
Eccentricity
0.0010362
Mean motion
15.00224009 rev/d
Perigee alt
559.0 km
Apogee alt
573.4 km
Semi-major
6,944.3 km
B*
1.7992e-4
RAAN
93.9089°
Arg perigee
83.4825°
Mean anomaly
276.7577°
Rev number
2,616

§ Raw data

KOMPSAT-71 66820U 25279A   26145.13734014  .00002193  00000+0  17992-3 0  99932 66820  97.6996  93.9089 0010362  83.4825 276.7577 15.00224009 26169

JSON: /api/v1/satellites/66820 · /tle

For live sub-satellite position, see the globe view (requires WebGL).

§ Visibility from observer

Set your observer location to see the next 7 days of passes ≥ 10°. The values pass through the URL so the page stays shareable.

No JS? Fill the form by hand. The geolocation button needs JavaScript.